DECAYED
Showing default

FOSSASAT2E14 (FEROX), 56936 (Decayed)

Orbit data source: Space-Track

FOSSASAT2E14 (FEROX), 56936 was a payload satellite owned by Fossa Systems (ES) in SSO that was launched on Mon, 12 Jun 2023 UTC via an FALCON 9 launch vehicle from the Air Force Western Test Range (AFWTR). Payload-class satellites include a variety of spacecraft equipped with specific instruments for various scientific and technological missions. These include communications satellites like Starlink; space stations such as the ISS; scientific satellites like the Hubble; Earth observation satellites from companies like Planet Labs, Umbra, and HawkEye 360; GPS; miniature CubeSats for education and research; and military/defense satellites.

Not visible in the next 10 days
Identifier
56936, 2023-084E
Orbit
Decayed
Country
Flag of ESES / SPN
Related business
Manufacturer
Fossa Systems
Mission
Decayed Commercial Communications
Bus & Motor
FLAT CUBESAT, Unknown motor
Mass
2 kg wet, 2 kg dry
Launch date (UTC)
2023-06-12 (2 years ago)
Launch vehicle
FALCON 9
Launch site
Air Force Western Test Range (AFWTR)
Object type
Payload
Rocket body
Debris
Shape & HBR
Box, 0.3 m
Radar Cross Section
0.015 m², Small (<0.1 m²)

Expand to show TLE details & history
Last TLE update: 1 year ago

TLE from 1 year ago
0 FOSSASAT2E14 (FEROX)
1 56936U 23084E   24145.15183343  .03831170  28780-1  47180-2 0  9991
2 56936  97.4946 271.1179 0016853 271.9898  87.9455 16.11452641 52977
Epoch: 2024-05-24T03:38Z
TLE epoch observation values (Epoch: 2024-05-24T03:38:38.408Z)
Latitude
-0.00011°
Longitude
-25.77762°
Altitude
245.691 km
Speed
7.76 km/s
True Right ascension
18h 04m 28s
True Declination
0° 00' 00"
Sunlit
Object was in full shadow at epoch
Visualization orbit readout
Latitude
Unknown
Longitude
Unknown
Altitude
Unknown
Speed
Unknown
Apparent Right ascension
Unknown
Apparent Declination
Unknown
Sunlit
N/A
Visualization observer readout
Local Sidereal Time
03:37:02
Azimuth
Unknown
Elevation
Unknown
Doppler factor
Unknown
Orbital elements
Apogee altitude
250.863 km
Perigee altitude
228.557 km
Semi-major axis
6,617.847 km
Eccentricity
0.00169
Inclination
97.4946°
RAAN
271.1179°
Arg. of periapsis
271.9898°
True anomaly
88.13851°
Mean anomaly
87.9455°
Eccentric anomaly
88.042°
Mean motion
4.03151 °/min
Orbital period
89.3 mins
BSTAR
0.004718
Loading maneuver chart data...
Computing Atmospheric mass density...
Loading historical data...
Loading historical data...
Loading historical data...
Loading historical data...
Loading historical data...
Loading historical data...
Loading historical data...

Documentation

Showing up to 5 results
|